Weather History for LEGR - February, 2012

Change the Weather History Date:

Wednesday, February 8, 2012

  Actual Average Record
Temperature  
Mean Temperature 37 °F -  
Max Temperature 43 °F 60 °F 69 °F (2000)
Min Temperature 31 °F 34 °F 26 °F (2013)
Degree Days  
Heating Degree Days 28    
Moisture  
Dew Point 13 °F    
Average Humidity 36    
Maximum Humidity 51    
Minimum Humidity 17    
Precipitation  
Precipitation 0.00 in - - ()
Sea Level Pressure  
Sea Level Pressure 30.16 in    
Wind  
Wind Speed 8 mph ()    
Max Wind Speed 17 mph    
Max Gust Speed -    
Visibility 7.9 miles    
Events      
Averages and records for this station are not official NWS values.
T = Trace of Precipitation, MM = Missing Value Source: Averaged Metar Reports

Daily Weather History Graph

Daily Weather History Graph

Search for Another Location

Airport or City:

Trip Planner

Search our weather history database for the weather conditions in past years. The results will help you decide how hot, cold, wet, or windy it might be!

Date:

Astronomy

Feb. 08, 2012 Rise Set
Actual Time 8:12 AM CET 6:46 PM CET
Civil Twilight 7:45 AM CET 7:13 PM CET
Nautical Twilight 7:14 AM CET 7:44 PM CET
Astronomical Twilight 6:44 AM CET 8:15 PM CET
Moon 7:47 PM CET (2/8) 8:09 AM CET (2/8)
Length of Visible Light 11h 28m
Length of Day
10h 34m
Full, 100% of the Moon is Illuminated
Feb 8
Full
Feb 14
Last Quarter
Feb 21
New
Mar 1
First Quarter
Mar 8
Full

Hourly Weather History & Observations

Time (CET) Temp. Windchill Dew Point Humidity Pressure Visibility Wind Dir Wind Speed Gust Speed Precip Events Conditions
1:00 AM 37 °F - 24 °F 48% 30.23 in 19 mi NW 3.5 mph - -   Clear
6:00 AM 33.8 °F 30.8 °F 15.8 °F 48% 30.15 in - North 3.5 mph - N/A   Clear
6:30 AM 33.8 °F 25.3 °F 14.0 °F 44% 30.15 in - NE 11.5 mph - N/A   Clear
7:00 AM 32 °F - 13 °F 32% 30.25 in 16 mi NNE 11.5 mph - -  
7:00 AM 33.8 °F 25.3 °F 14.0 °F 44% 30.15 in - NNE 11.5 mph - N/A   Clear
7:30 AM 32.0 °F 24.8 °F 14.0 °F 48% 30.15 in - NE 8.1 mph - N/A   Clear
8:00 AM 32.0 °F 25.6 °F 14.0 °F 48% 30.15 in - NE 6.9 mph - N/A   Clear
8:30 AM 32.0 °F 25.6 °F 14.0 °F 48% 30.15 in - NE 6.9 mph - N/A   Clear
9:00 AM 32.0 °F 24.8 °F 12.2 °F 44% 30.15 in - NE 8.1 mph - N/A   Clear
9:30 AM 33.8 °F 24.8 °F 10.4 °F 38% 30.18 in - NE 12.7 mph - N/A   Clear
10:00 AM 33.8 °F 24.3 °F 12.2 °F 41% 30.18 in - NE 13.8 mph - N/A   Clear
10:30 AM 35.6 °F 25.5 °F 12.2 °F 38% 30.15 in - NE 17.3 mph - N/A   Clear
11:00 AM 35.6 °F 26.2 °F 12.2 °F 38% 30.15 in - NNE 15.0 mph - N/A   Clear
11:30 AM 37.4 °F 28.9 °F 12.2 °F 36% 30.15 in 6.2 mi NNE 13.8 mph - N/A   Partly Cloudy
12:00 PM 39.2 °F 32.5 °F 14.0 °F 36% 30.15 in 6.2 mi NE 10.4 mph - N/A   Partly Cloudy
12:30 PM 39.2 °F 32.5 °F 12.2 °F 33% 30.15 in 6.2 mi NE 10.4 mph - N/A   Partly Cloudy
1:00 PM 40 °F - 10 °F 17% 30.22 in 19 mi NE 9.2 mph - -   Scattered Clouds
1:00 PM 41.0 °F 35.8 °F 10.4 °F 29% 30.15 in 6.2 mi NE 8.1 mph - N/A   Partly Cloudy
1:30 PM 41.0 °F 36.4 °F 10.4 °F 29% 30.15 in 6.2 mi NE 6.9 mph - N/A   Partly Cloudy
2:00 PM 42.8 °F 37.5 °F 10.4 °F 27% 30.12 in 6.2 mi NE 9.2 mph - N/A   Partly Cloudy
2:30 PM 42.8 °F 37.0 °F 12.2 °F 29% 30.12 in 6.2 mi NE 10.4 mph - N/A   Partly Cloudy
3:00 PM 42.8 °F 36.2 °F 10.4 °F 27% 30.12 in 6.2 mi ENE 12.7 mph - N/A   Partly Cloudy
3:30 PM 42.8 °F 37.0 °F 10.4 °F 27% 30.12 in 6.2 mi NNE 10.4 mph - N/A   Partly Cloudy
4:00 PM 42.8 °F 36.6 °F 10.4 °F 27% 30.12 in 6.2 mi NNE 11.5 mph - N/A   Partly Cloudy
4:30 PM 42.8 °F 38.0 °F 10.4 °F 27% 30.12 in 6.2 mi NNE 8.1 mph - N/A   Partly Cloudy
5:00 PM 44.6 °F 38.8 °F 12.2 °F 27% 30.12 in 6.2 mi ENE 11.5 mph - N/A   Partly Cloudy
5:30 PM 42.8 °F 37.0 °F 10.4 °F 27% 30.12 in 6.2 mi NE 10.4 mph - N/A   Partly Cloudy
6:00 PM 41.0 °F 34.3 °F 10.4 °F 29% 30.12 in 6.2 mi NE 11.5 mph - N/A   Partly Cloudy
6:30 PM 41.0 °F 34.3 °F 10.4 °F 29% 30.15 in 6.2 mi ENE 11.5 mph - N/A   Partly Cloudy
7:00 PM 38 °F - 11 °F 20% 30.23 in 19 mi NE 10.4 mph - -   Scattered Clouds
7:00 PM 39.2 °F 32.0 °F 12.2 °F 33% 30.15 in 6.2 mi NE 11.5 mph - N/A   Partly Cloudy
7:30 PM 37.4 °F 32.8 °F 14.0 °F 38% 30.18 in 6.2 mi NNE 5.8 mph - N/A   Partly Cloudy
8:00 PM 35.6 °F 30.7 °F 12.2 °F 38% 30.18 in 6.2 mi NE 5.8 mph - N/A   Partly Cloudy
8:30 PM 35.6 °F 32.8 °F 14.0 °F 41% 30.18 in 6.2 mi NNE 3.5 mph - N/A   Partly Cloudy
9:00 PM 33.8 °F 29.6 °F 14.0 °F 44% 30.18 in 6.2 mi NNE 4.6 mph - N/A   Partly Cloudy
9:30 PM 33.8 °F 29.6 °F 14.0 °F 44% 30.18 in 6.2 mi NNE 4.6 mph - N/A   Partly Cloudy
10:00 PM 33.8 °F - 14.0 °F 44% 30.21 in 6.2 mi Variable 2.3 mph - N/A   Partly Cloudy
10:30 PM 33.8 °F - 14.0 °F 44% 30.21 in 6.2 mi Variable 2.3 mph - N/A   Partly Cloudy
11:00 PM 32.0 °F - 15.8 °F 51% 30.21 in 6.2 mi Variable 2.3 mph - N/A   Partly Cloudy